"FRM_AIS_EDR_2334.DAT           ",2005-11-07T06:00:59.44 ,"1/0079423254.32534",    0,    0,  274896,"AIS","B1","B1","B1","B1","PISd",0,0,0,0,"B1", 0,15,   0, 0,    0,"AIS","N/A    ","OK ","OK ",    001163.014,    -065.653,    -058.837,    0000.058,    0098.158
"FRM_AIS_EDR_2334.DAT           ",2005-11-07T06:01:06.98 ,"1/0079423262.02597",    0,    1,  274896,"AIS","B1","B1","B1","B1","PISd",0,0,0,0,"B1", 0,15,   0, 0,    0,"AIS","N/A    ","OK ","OK ",    001152.667,    -065.979,    -058.752,    0000.065,    0097.834
"FRM_AIS_EDR_2334.DAT           ",2005-11-07T06:01:14.53 ,"1/0079423269.38197",    0,    2,  274896,"AIS","B1","B1","B1","B1","PISd",0,0,0,0,"B1", 0,15,   0, 0,    0,"AIS","N/A    ","OK ","OK ",    001142.352,    -066.306,    -058.664,    0000.073,    0097.509
"FRM_AIS_EDR_2334.DAT           ",2005-11-07T06:01:22.07 ,"1/0079423277.08260",    0,    3,  274896,"AIS","B1","B1","B1","B1","PISd",0,0,0,0,"B1", 0,15,   0, 0,    0,"AIS","N/A    ","OK ","OK ",    001132.069,    -066.635,    -058.572,    0000.081,    0097.181
"FRM_AIS_EDR_2334.DAT           ",2005-11-07T06:01:29.61 ,"1/0079423284.43859",    0,    4,  274896,"AIS","B1","B1","B1","B1","PISd",0,0,0,0,"B1", 0,15,   0, 0,    0,"AIS","N/A    ","OK ","OK ",    001121.819,    -066.965,    -058.476,    0000.090,    0096.853
"FRM_AIS_EDR_2334.DAT           ",2005-11-07T06:01:37.16 ,"1/0079423292.13923",    0,    5,  274896,"AIS","B1","B1","B1","B1","PISd",0,0,0,0,"B1", 0,15,   0, 0,    0,"AIS","N/A    ","OK ","OK ",    001111.602,    -067.297,    -058.376,    0000.099,    0096.523
"FRM_AIS_EDR_2334.DAT           ",2005-11-07T06:01:44.70 ,"1/0079423299.49522",    0,    6,  274896,"AIS","B1","B1","B1","B1","PISd",0,0,0,0,"B1", 0,15,   0, 0,    0,"AIS","N/A    ","OK ","OK ",    001101.419,    -067.630,    -058.272,    0000.107,    0096.191
"FRM_AIS_EDR_2334.DAT           ",2005-11-07T06:01:52.24 ,"1/0079423307.19586",    0,    7,  274896,"AIS","B1","B1","B1","B1","PISd",0,0,0,0,"B1", 0,15,   0, 0,    0,"AIS","N/A    ","OK ","OK ",    001091.270,    -067.965,    -058.164,    0000.117,    0095.858
"FRM_AIS_EDR_2334.DAT           ",2005-11-07T06:01:59.79 ,"1/0079423314.55185",    0,    8,  274896,"AIS","B1","B1","B1","B1","PISd",0,0,0,0,"B1", 0,15,   0, 0,    0,"AIS","N/A    ","OK ","OK ",    001081.155,    -068.301,    -058.050,    0000.126,    0095.524
"FRM_AIS_EDR_2334.DAT           ",2005-11-07T06:02:07.33 ,"1/0079423322.25249",    0,    9,  274896,"AIS","B1","B1","B1","B1","PISd",0,0,0,0,"B1", 0,15,   0, 0,    0,"AIS","N/A    ","OK ","OK ",    001071.076,    -068.638,    -057.932,    0000.136,    0095.188
"FRM_AIS_EDR_2334.DAT           ",2005-11-07T06:02:14.87 ,"1/0079423329.60848",    0,   10,  274896,"AIS","B1","B1","B1","B1","PISd",0,0,0,0,"B1", 0,15,   0, 0,    0,"AIS","N/A    ","OK ","OK ",    001061.032,    -068.977,    -057.808,    0000.147,    0094.850
"FRM_AIS_EDR_2334.DAT           ",2005-11-07T06:02:22.42 ,"1/0079423337.30912",    0,   11,  274896,"AIS","B1","B1","B1","B1","PISd",0,0,0,0,"B1", 0,15,   0, 0,    0,"AIS","N/A    ","OK ","OK ",    001051.025,    -069.317,    -057.679,    0000.157,    0094.511
"FRM_AIS_EDR_2334.DAT           ",2005-11-07T06:02:29.96 ,"1/0079423345.00975",    0,   12,  274896,"AIS","B1","B1","B1","B1","PISd",0,0,0,0,"B1", 0,15,   0, 0,    0,"AIS","N/A    ","OK ","OK ",    001041.054,    -069.659,    -057.544,    0000.168,    0094.170
"FRM_AIS_EDR_2334.DAT           ",2005-11-07T06:02:37.50 ,"1/0079423352.36574",    0,   13,  274896,"AIS","B1","B1","B1","B1","PISd",0,0,0,0,"B1", 0,15,   0, 0,    0,"AIS","N/A    ","OK ","OK ",    001031.121,    -070.002,    -057.402,    0000.180,    0093.828
"FRM_AIS_EDR_2334.DAT           ",2005-11-07T06:02:45.05 ,"1/0079423360.06638",    0,   14,  274896,"AIS","B1","B1","B1","B1","PISd",0,0,0,0,"B1", 0,15,   0, 0,    0,"AIS","N/A    ","OK ","OK ",    001021.225,    -070.346,    -057.254,    0000.192,    0093.485
"FRM_AIS_EDR_2334.DAT           ",2005-11-07T06:02:52.59 ,"1/0079423367.42237",    0,   15,  274896,"AIS","B1","B1","B1","B1","PISd",0,0,0,0,"B1", 0,15,   0, 0,    0,"AIS","N/A    ","OK ","OK ",    001011.367,    -070.692,    -057.100,    0000.204,    0093.139
"FRM_AIS_EDR_2334.DAT           ",2005-11-07T06:03:00.13 ,"1/0079423375.12301",    0,   16,  274896,"AIS","B1","B1","B1","B1","PISd",0,0,0,0,"B1", 0,15,   0, 0,    0,"AIS","N/A    ","OK ","OK ",    001001.548,    -071.039,    -056.937,    0000.217,    0092.793
"FRM_AIS_EDR_2334.DAT           ",2005-11-07T06:03:07.68 ,"1/0079423382.47900",    0,   17,  274896,"AIS","B1","B1","B1","B1","PISd",0,0,0,0,"B1", 0,15,   0, 0,    0,"AIS","N/A    ","OK ","OK ",    000991.768,    -071.387,    -056.767,    0000.230,    0092.444
"FRM_AIS_EDR_2334.DAT           ",2005-11-07T06:03:15.22 ,"1/0079423390.17964",    0,   18,  274896,"AIS","B1","B1","B1","B1","PISd",0,0,0,0,"B1", 0,15,   0, 0,    0,"AIS","N/A    ","OK ","OK ",    000982.028,    -071.737,    -056.589,    0000.244,    0092.095
"FRM_AIS_EDR_2334.DAT           ",2005-11-07T06:03:22.76 ,"1/0079423397.53563",    0,   19,  274896,"AIS","B1","B1","B1","B1","PISd",0,0,0,0,"B1", 0,15,   0, 0,    0,"AIS","N/A    ","OK ","OK ",    000972.329,    -072.088,    -056.401,    0000.259,    0091.743
"FRM_AIS_EDR_2334.DAT           ",2005-11-07T06:03:30.30 ,"1/0079423405.23626",    0,   20,  274896,"AIS","B1","B1","B1","B1","PISd",0,0,0,0,"B1", 0,15,   0, 0,    0,"AIS","N/A    ","OK ","OK ",    000962.670,    -072.441,    -056.205,    0000.274,    0091.391
"FRM_AIS_EDR_2334.DAT           ",2005-11-07T06:03:37.85 ,"1/0079423412.59226",    0,   21,  274896,"AIS","B1","B1","B1","B1","PISd",0,0,0,0,"B1", 0,15,   0, 0,    0,"AIS","N/A    ","OK ","OK ",    000953.053,    -072.794,    -055.998,    0000.290,    0091.036
"FRM_AIS_EDR_2334.DAT           ",2005-11-07T06:03:45.39 ,"1/0079423420.29289",    0,   22,  274896,"AIS","B1","B1","B1","B1","PISd",0,0,0,0,"B1", 0,15,   0, 0,    0,"AIS","N/A    ","OK ","OK ",    000943.478,    -073.149,    -055.780,    0000.306,    0090.680
"FRM_AIS_EDR_2334.DAT           ",2005-11-07T06:03:52.93 ,"1/0079423427.64889",    0,   23,  274896,"AIS","B1","B1","B1","B1","PISd",0,0,0,0,"B1", 0,15,   0, 0,    0,"AIS","N/A    ","OK ","OK ",    000933.945,    -073.506,    -055.551,    0000.324,    0090.323
"FRM_AIS_EDR_2334.DAT           ",2005-11-07T06:04:00.48 ,"1/0079423435.34952",    0,   24,  274896,"AIS","B1","B1","B1","B1","PISd",0,0,0,0,"B1", 0,15,   0, 0,    0,"AIS","N/A    ","OK ","OK ",    000924.456,    -073.863,    -055.309,    0000.342,    0089.964
"FRM_AIS_EDR_2334.DAT           ",2005-11-07T06:04:08.02 ,"1/0079423443.05016",    0,   25,  274896,"AIS","B1","B1","B1","B1","PISd",0,0,0,0,"B1", 0,15,   0, 0,    0,"AIS","N/A    ","OK ","OK ",    000915.010,    -074.222,    -055.055,    0000.361,    0089.603
"FRM_AIS_EDR_2334.DAT           ",2005-11-07T06:04:15.56 ,"1/0079423450.40615",    0,   26,  274896,"AIS","B1","B1","B1","B1","PISd",0,0,0,0,"B1", 0,15,   0, 0,    0,"AIS","N/A    ","OK ","OK ",    000905.608,    -074.582,    -054.785,    0000.381,    0089.241
"FRM_AIS_EDR_2334.DAT           ",2005-11-07T06:04:23.11 ,"1/0079423458.10678",    0,   27,  274896,"AIS","B1","B1","B1","B1","PISd",0,0,0,0,"B1", 0,15,   0, 0,    0,"AIS","N/A    ","OK ","OK ",    000896.252,    -074.943,    -054.501,    0000.402,    0088.877
"FRM_AIS_EDR_2334.DAT           ",2005-11-07T06:04:30.65 ,"1/0079423465.46278",    0,   28,  274896,"AIS","B1","B1","B1","B1","PISd",0,0,0,0,"B1", 0,15,   0, 0,    0,"AIS","N/A    ","OK ","OK ",    000886.940,    -075.306,    -054.200,    0000.424,    0088.512
"FRM_AIS_EDR_2334.DAT           ",2005-11-07T06:04:38.19 ,"1/0079423473.16341",    0,   29,  274896,"AIS","B1","B1","B1","B1","PISd",0,0,0,0,"B1", 0,15,   0, 0,    0,"AIS","N/A    ","OK ","OK ",    000877.675,    -075.669,    -053.881,    0000.447,    0088.145
"FRM_AIS_EDR_2334.DAT           ",2005-11-07T06:04:45.74 ,"1/0079423480.51941",    0,   30,  274896,"AIS","B1","B1","B1","B1","PISd",0,0,0,0,"B1", 0,15,   0, 0,    0,"AIS","N/A    ","OK ","OK ",    000868.456,    -076.033,    -053.542,    0000.472,    0087.776
"FRM_AIS_EDR_2334.DAT           ",2005-11-07T06:04:53.28 ,"1/0079423488.22004",    0,   31,  274896,"AIS","B1","B1","B1","B1","PISd",0,0,0,0,"B1", 0,15,   0, 0,    0,"AIS","N/A    ","OK ","OK ",    000859.284,    -076.399,    -053.183,    0000.498,    0087.406
"FRM_AIS_EDR_2334.DAT           ",2005-11-07T06:05:00.82 ,"1/0079423495.57603",    0,   32,  274896,"AIS","B1","B1","B1","B1","PISd",0,0,0,0,"B1", 0,15,   0, 0,    0,"AIS","N/A    ","OK ","OK ",    000850.160,    -076.765,    -052.800,    0000.525,    0087.034
"FRM_AIS_EDR_2334.DAT           ",2005-11-07T06:05:08.37 ,"1/0079423503.27667",    0,   33,  274896,"AIS","B1","B1","B1","B1","PISd",0,0,0,0,"B1", 0,15,   0, 0,    0,"AIS","N/A    ","OK ","OK ",    000841.084,    -077.132,    -052.392,    0000.554,    0086.661
"FRM_AIS_EDR_2334.DAT           ",2005-11-07T06:05:15.91 ,"1/0079423510.63266",    0,   34,  274896,"AIS","B1","B1","B1","B1","PISd",0,0,0,0,"B1", 0,15,   0, 0,    0,"AIS","N/A    ","OK ","OK ",    000832.057,    -077.500,    -051.957,    0000.586,    0086.286
"FRM_AIS_EDR_2334.DAT           ",2005-11-07T06:05:23.45 ,"1/0079423518.33330",    0,   35,  274896,"AIS","B1","B1","B1","B1","PISd",0,0,0,0,"B1", 0,15,   0, 0,    0,"AIS","N/A    ","OK ","OK ",    000823.079,    -077.869,    -051.493,    0000.619,    0085.910
"FRM_AIS_EDR_2334.DAT           ",2005-11-07T06:05:31.00 ,"1/0079423526.03393",    0,   36,  274896,"AIS","B1","B1","B1","B1","PISd",0,0,0,0,"B1", 0,15,   0, 0,    0,"AIS","N/A    ","OK ","OK ",    000814.152,    -078.239,    -050.995,    0000.654,    0085.532
"FRM_AIS_EDR_2334.DAT           ",2005-11-07T06:05:38.54 ,"1/0079423533.38993",    0,   37,  274896,"AIS","B1","B1","B1","B1","PISd",0,0,0,0,"B1", 0,15,   0, 0,    0,"AIS","N/A    ","OK ","OK ",    000805.275,    -078.609,    -050.461,    0000.691,    0085.152
"FRM_AIS_EDR_2334.DAT           ",2005-11-07T06:05:46.08 ,"1/0079423541.09056",    0,   38,  274896,"AIS","B1","B1","B1","B1","PISd",0,0,0,0,"B1", 0,15,   0, 0,    0,"AIS","N/A    ","OK ","OK ",    000796.449,    -078.979,    -049.887,    0000.732,    0084.771
"FRM_AIS_EDR_2334.DAT           ",2005-11-07T06:05:53.63 ,"1/0079423548.44655",    0,   39,  274896,"AIS","B1","B1","B1","B1","PISd",0,0,0,0,"B1", 0,15,   0, 0,    0,"AIS","N/A    ","OK ","OK ",    000787.676,    -079.350,    -049.269,    0000.775,    0084.388
"FRM_AIS_EDR_2334.DAT           ",2005-11-07T06:06:01.17 ,"1/0079423556.14719",    0,   40,  274896,"AIS","B1","B1","B1","B1","PISd",0,0,0,0,"B1", 0,15,   0, 0,    0,"AIS","N/A    ","OK ","OK ",    000778.954,    -079.721,    -048.601,    0000.821,    0084.004
"FRM_AIS_EDR_2334.DAT           ",2005-11-07T06:06:08.71 ,"1/0079423563.50318",    0,   41,  274896,"AIS","B1","B1","B1","B1","PISd",0,0,0,0,"B1", 0,15,   0, 0,    0,"AIS","N/A    ","OK ","OK ",    000770.286,    -080.091,    -047.879,    0000.872,    0083.618
"FRM_AIS_EDR_2334.DAT           ",2005-11-07T06:06:16.26 ,"1/0079423571.20382",    0,   42,  274896,"AIS","B1","B1","B1","B1","PISd",0,0,0,0,"B1", 0,15,   0, 0,    0,"AIS","N/A    ","OK ","OK ",    000761.672,    -080.462,    -047.095,    0000.926,    0083.230
"FRM_AIS_EDR_2334.DAT           ",2005-11-07T06:06:23.80 ,"1/0079423578.55981",    0,   43,  274896,"AIS","B1","B1","B1","B1","PISd",0,0,0,0,"B1", 0,15,   0, 0,    0,"AIS","N/A    ","OK ","OK ",    000753.112,    -080.832,    -046.243,    0000.985,    0082.841
"FRM_AIS_EDR_2334.DAT           ",2005-11-07T06:06:31.34 ,"1/0079423586.26044",    0,   44,  274896,"AIS","B1","B1","B1","B1","PISd",0,0,0,0,"B1", 0,15,   0, 0,    0,"AIS","N/A    ","OK ","OK ",    000744.607,    -081.201,    -045.313,    0001.049,    0082.450
"FRM_AIS_EDR_2334.DAT           ",2005-11-07T06:06:38.88 ,"1/0079423593.61644",    0,   45,  274896,"AIS","B1","B1","B1","B1","PISd",0,0,0,0,"B1", 0,15,   0, 0,    0,"AIS","N/A    ","OK ","OK ",    000736.157,    -081.569,    -044.296,    0001.119,    0082.058
"FRM_AIS_EDR_2334.DAT           ",2005-11-07T06:06:46.43 ,"1/0079423601.31707",    0,   46,  274896,"AIS","B1","B1","B1","B1","PISd",0,0,0,0,"B1", 0,15,   0, 0,    0,"AIS","N/A    ","OK ","OK ",    000727.764,    -081.936,    -043.178,    0001.195,    0081.664
"FRM_AIS_EDR_2334.DAT           ",2005-11-07T06:06:53.97 ,"1/0079423609.01771",    0,   47,  274896,"AIS","B1","B1","B1","B1","PISd",0,0,0,0,"B1", 0,15,   0, 0,    0,"AIS","N/A    ","OK ","OK ",    000719.427,    -082.300,    -041.948,    0001.279,    0081.268
"FRM_AIS_EDR_2334.DAT           ",2005-11-07T06:07:01.51 ,"1/0079423616.37370",    0,   48,  274896,"AIS","B1","B1","B1","B1","PISd",0,0,0,0,"B1", 0,15,   0, 0,    0,"AIS","N/A    ","OK ","OK ",    000711.148,    -082.662,    -040.588,    0001.372,    0080.871
"FRM_AIS_EDR_2334.DAT           ",2005-11-07T06:07:09.06 ,"1/0079423624.07433",    0,   49,  274896,"AIS","B1","B1","B1","B1","PISd",0,0,0,0,"B1", 0,15,   0, 0,    0,"AIS","N/A    ","OK ","OK ",    000702.927,    -083.021,    -039.079,    0001.475,    0080.472
"FRM_AIS_EDR_2334.DAT           ",2005-11-07T06:07:16.60 ,"1/0079423631.43033",    0,   50,  274896,"AIS","B1","B1","B1","B1","PISd",0,0,0,0,"B1", 0,15,   0, 0,    0,"AIS","N/A    ","OK ","OK ",    000694.764,    -083.375,    -037.398,    0001.589,    0080.072
"FRM_AIS_EDR_2334.DAT           ",2005-11-07T06:07:24.14 ,"1/0079423639.13096",    0,   51,  274896,"AIS","B1","B1","B1","B1","PISd",0,0,0,0,"B1", 0,15,   0, 0,    0,"AIS","N/A    ","OK ","OK ",    000686.661,    -083.725,    -035.518,    0001.716,    0079.670
"FRM_AIS_EDR_2334.DAT           ",2005-11-07T06:07:31.69 ,"1/0079423646.48696",    0,   52,  274896,"AIS","B1","B1","B1","B1","PISd",0,0,0,0,"B1", 0,15,   0, 0,    0,"AIS","N/A    ","OK ","OK ",    000678.618,    -084.068,    -033.408,    0001.859,    0079.266
"FRM_AIS_EDR_2334.DAT           ",2005-11-07T06:07:39.23 ,"1/0079423654.18759",    0,   53,  274896,"AIS","B1","B1","B1","B1","PISd",0,0,0,0,"B1", 0,15,   0, 0,    0,"AIS","N/A    ","OK ","OK ",    000670.635,    -084.403,    -031.029,    0002.019,    0078.861
"FRM_AIS_EDR_2334.DAT           ",2005-11-07T06:07:46.77 ,"1/0079423661.54358",    0,   54,  274896,"AIS","B1","B1","B1","B1","PISd",0,0,0,0,"B1", 0,15,   0, 0,    0,"AIS","N/A    ","OK ","OK ",    000662.714,    -084.728,    -028.339,    0002.201,    0078.455
"FRM_AIS_EDR_2334.DAT           ",2005-11-07T06:07:54.32 ,"1/0079423669.24422",    0,   55,  274896,"AIS","B1","B1","B1","B1","PISd",0,0,0,0,"B1", 0,15,   0, 0,    0,"AIS","N/A    ","OK ","OK ",    000654.855,    -085.041,    -025.287,    0002.406,    0078.046
"FRM_AIS_EDR_2334.DAT           ",2005-11-07T06:08:01.86 ,"1/0079423676.60021",    0,   56,  274896,"AIS","B1","B1","B1","B1","PISd",0,0,0,0,"B1", 0,15,   0, 0,    0,"AIS","N/A    ","OK ","OK ",    000647.058,    -085.339,    -021.817,    0002.640,    0077.637
"FRM_AIS_EDR_2334.DAT           ",2005-11-07T06:08:09.40 ,"1/0079423684.30085",    0,   57,  274896,"AIS","B1","B1","B1","B1","PISd",0,0,0,0,"B1", 0,15,   0, 0,    0,"AIS","N/A    ","OK ","OK ",    000639.324,    -085.619,    -017.872,    0002.905,    0077.225
"FRM_AIS_EDR_2334.DAT           ",2005-11-07T06:08:16.95 ,"1/0079423692.00148",    0,   58,  274896,"AIS","B1","B1","B1","B1","PISd",0,0,0,0,"B1", 0,15,   0, 0,    0,"AIS","N/A    ","OK ","OK ",    000631.654,    -085.875,    -013.392,    0003.206,    0076.812
"FRM_AIS_EDR_2334.DAT           ",2005-11-07T06:08:24.49 ,"1/0079423699.35747",    0,   59,  274896,"AIS","B1","B1","B1","B1","PISd",0,0,0,0,"B1", 0,15,   0, 0,    0,"AIS","N/A    ","OK ","OK ",    000624.049,    -086.104,    -008.331,    0003.545,    0076.398
"FRM_AIS_EDR_2334.DAT           ",2005-11-07T06:08:32.03 ,"1/0079423707.05811",    0,   60,  274896,"AIS","B1","B1","B1","B1","PISd",0,0,0,0,"B1", 0,15,   0, 0,    0,"AIS","N/A    ","OK ","OK ",    000616.508,    -086.299,    -002.664,    0003.925,    0075.982
"FRM_AIS_EDR_2334.DAT           ",2005-11-07T06:08:39.58 ,"1/0079423714.41410",    0,   61,  274896,"AIS","B1","B1","B1","B1","PISd",0,0,0,0,"B1", 0,15,   0, 0,    0,"AIS","N/A    ","OK ","OK ",    000609.034,    -086.455,    0003.591,    0004.344,    0075.564
"FRM_AIS_EDR_2334.DAT           ",2005-11-07T06:08:47.12 ,"1/0079423722.11473",    0,   62,  274896,"AIS","B1","B1","B1","B1","PISd",0,0,0,0,"B1", 0,15,   0, 0,    0,"AIS","N/A    ","OK ","OK ",    000601.626,    -086.564,    0010.358,    0004.797,    0075.145
"FRM_AIS_EDR_2334.DAT           ",2005-11-07T06:08:54.66 ,"1/0079423729.47073",    0,   63,  274896,"AIS","B1","B1","B1","B1","PISd",0,0,0,0,"B1", 0,15,   0, 0,    0,"AIS","N/A    ","OK ","OK ",    000594.284,    -086.623,    0017.491,    0005.274,    0074.724
"FRM_AIS_EDR_2334.DAT           ",2005-11-07T06:09:02.21 ,"1/0079423737.17136",    0,   64,  274896,"AIS","B1","B1","B1","B1","PISd",0,0,0,0,"B1", 0,15,   0, 0,    0,"AIS","N/A    ","OK ","OK ",    000587.011,    -086.627,    0024.786,    0005.763,    0074.302
"FRM_AIS_EDR_2334.DAT           ",2005-11-07T06:09:09.75 ,"1/0079423744.52736",    0,   65,  274896,"AIS","B1","B1","B1","B1","PISd",0,0,0,0,"B1", 0,15,   0, 0,    0,"AIS","N/A    ","OK ","OK ",    000579.806,    -086.577,    0032.008,    0006.246,    0073.878
"FRM_AIS_EDR_2334.DAT           ",2005-11-07T06:09:17.29 ,"1/0079423752.22799",    0,   66,  274896,"AIS","B1","B1","B1","B1","PISd",0,0,0,0,"B1", 0,15,   0, 0,    0,"AIS","N/A    ","OK ","OK ",    000572.670,    -086.473,    0038.939,    0006.711,    0073.453
"FRM_AIS_EDR_2334.DAT           ",2005-11-07T06:09:24.84 ,"1/0079423759.58398",    0,   67,  274896,"AIS","B1","B1","B1","B1","PISd",0,0,0,0,"B1", 0,15,   0, 0,    0,"AIS","N/A    ","OK ","OK ",    000565.603,    -086.321,    0045.407,    0007.144,    0073.026
"FRM_AIS_EDR_2334.DAT           ",2005-11-07T06:09:32.38 ,"1/0079423767.28462",    0,   68,  274896,"AIS","B1","B1","B1","B1","PISd",0,0,0,0,"B1", 0,15,   0, 0,    0,"AIS","N/A    ","OK ","OK ",    000558.607,    -086.124,    0051.308,    0007.539,    0072.598
"FRM_AIS_EDR_2334.DAT           ",2005-11-07T06:09:39.92 ,"1/0079423774.64061",    0,   69,  274896,"AIS","B1","B1","B1","B1","PISd",0,0,0,0,"B1", 0,15,   0, 0,    0,"AIS","N/A    ","OK ","OK ",    000551.681,    -085.889,    0056.605,    0007.894,    0072.168
"FRM_AIS_EDR_2334.DAT           ",2005-11-07T06:09:47.46 ,"1/0079423782.34125",    0,   70,  274896,"AIS","B1","B1","B1","B1","PISd",0,0,0,0,"B1", 0,15,   0, 0,    0,"AIS","N/A    ","OK ","OK ",    000544.827,    -085.622,    0061.307,    0008.210,    0071.737
"FRM_AIS_EDR_2334.DAT           ",2005-11-07T06:09:55.01 ,"1/0079423790.04188",    0,   71,  274896,"AIS","B1","B1","B1","B1","PISd",0,0,0,0,"B1", 0,15,   0, 0,    0,"AIS","N/A    ","OK ","OK ",    000538.046,    -085.328,    0065.455,    0008.489,    0071.304
"FRM_AIS_EDR_2334.DAT           ",2005-11-07T06:10:02.55 ,"1/0079423797.39787",    0,   72,  274896,"AIS","B1","B1","B1","B1","PISd",0,0,0,0,"B1", 0,15,   0, 0,    0,"AIS","N/A    ","OK ","OK ",    000531.337,    -085.010,    0069.104,    0008.734,    0070.869
"FRM_AIS_EDR_2334.DAT           ",2005-11-07T06:10:10.09 ,"1/0079423805.09851",    0,   73,  274896,"AIS","B1","B1","B1","B1","PISd",0,0,0,0,"B1", 0,15,   0, 0,    0,"AIS","N/A    ","OK ","OK ",    000524.702,    -084.674,    0072.312,    0008.950,    0070.434
"FRM_AIS_EDR_2334.DAT           ",2005-11-07T06:10:17.64 ,"1/0079423812.45450",    0,   74,  274896,"AIS","B1","B1","B1","B1","PISd",0,0,0,0,"B1", 0,15,   0, 0,    0,"AIS","N/A    ","OK ","OK ",    000518.140,    -084.321,    0075.137,    0009.140,    0069.996
"FRM_AIS_EDR_2334.DAT           ",2005-11-07T06:10:25.18 ,"1/0079423820.15513",    0,   75,  274896,"AIS","B1","B1","B1","B1","PISd",0,0,0,0,"B1", 0,15,   0, 0,    0,"AIS","N/A    ","OK ","OK ",    000511.654,    -083.955,    0077.632,    0009.308,    0069.558
"FRM_AIS_EDR_2334.DAT           ",2005-11-07T06:10:32.72 ,"1/0079423827.51113",    0,   76,  274896,"AIS","B1","B1","B1","B1","PISd",0,0,0,0,"B1", 0,15,   0, 0,    0,"AIS","N/A    ","OK ","OK ",    000505.243,    -083.577,    0079.843,    0009.458,    0069.118
"FRM_AIS_EDR_2334.DAT           ",2005-11-07T06:10:40.27 ,"1/0079423835.21176",    0,   77,  274896,"AIS","B1","B1","B1","B1","PISd",0,0,0,0,"B1", 0,15,   0, 0,    0,"AIS","N/A    ","OK ","OK ",    000498.908,    -083.189,    0081.809,    0009.591,    0068.676
"FRM_AIS_EDR_2334.DAT           ",2005-11-07T06:10:47.81 ,"1/0079423842.56776",    0,   78,  274896,"AIS","B1","B1","B1","B1","PISd",0,0,0,0,"B1", 0,15,   0, 0,    0,"AIS","N/A    ","OK ","OK ",    000492.649,    -082.793,    0083.565,    0009.710,    0068.233
"FRM_AIS_EDR_2334.DAT           ",2005-11-07T06:10:55.35 ,"1/0079423850.26839",    0,   79,  274896,"AIS","B1","B1","B1","B1","PISd",0,0,0,0,"B1", 0,15,   0, 0,    0,"AIS","N/A    ","OK ","OK ",    000486.468,    -082.389,    0085.138,    0009.817,    0067.789
"FRM_AIS_EDR_2334.DAT           ",2005-11-07T06:11:02.90 ,"1/0079423857.62438",    0,   80,  274896,"AIS","B1","B1","B1","B1","PISd",0,0,0,0,"B1", 0,15,   0, 0,    0,"AIS","N/A    ","OK ","OK ",    000480.365,    -081.978,    0086.555,    0009.914,    0067.343
"FRM_AIS_EDR_2334.DAT           ",2005-11-07T06:11:10.44 ,"1/0079423865.32502",    0,   81,  274896,"AIS","B1","B1","B1","B1","PISd",0,0,0,0,"B1", 0,15,   0, 0,    0,"AIS","N/A    ","OK ","OK ",    000474.341,    -081.562,    0087.834,    0010.001,    0066.896
"FRM_AIS_EDR_2334.DAT           ",2005-11-07T06:11:17.98 ,"1/0079423873.02565",    0,   82,  274896,"AIS","B1","B1","B1","B1","PISd",0,0,0,0,"B1", 0,15,   0, 0,    0,"AIS","N/A    ","OK ","OK ",    000468.395,    -081.140,    0088.994,    0010.080,    0066.447
"FRM_AIS_EDR_2334.DAT           ",2005-11-07T06:11:25.53 ,"1/0079423880.38164",    0,   83,  274896,"AIS","B1","B1","B1","B1","PISd",0,0,0,0,"B1", 0,15,   0, 0,    0,"AIS","N/A    ","OK ","OK ",    000462.530,    -080.714,    0090.050,    0010.152,    0065.997
"FRM_AIS_EDR_2334.DAT           ",2005-11-07T06:11:33.07 ,"1/0079423888.08228",    0,   84,  274896,"AIS","B1","B1","B1","B1","PISd",0,0,0,0,"B1", 0,15,   0, 0,    0,"AIS","N/A    ","OK ","OK ",    000456.745,    -080.283,    0091.013,    0010.219,    0065.546
"FRM_AIS_EDR_2334.DAT           ",2005-11-07T06:11:40.61 ,"1/0079423895.43827",    0,   85,  274896,"AIS","B1","B1","B1","B1","PISd",0,0,0,0,"B1", 0,15,   0, 0,    0,"AIS","N/A    ","OK ","OK ",    000451.040,    -079.849,    0091.895,    0010.280,    0065.093
"FRM_AIS_EDR_2334.DAT           ",2005-11-07T06:11:48.16 ,"1/0079423903.13891",    0,   86,  274896,"AIS","B1","B1","B1","B1","PISd",0,0,0,0,"B1", 0,15,   0, 0,    0,"AIS","N/A    ","OK ","OK ",    000445.418,    -079.410,    0092.706,    0010.336,    0064.639
"FRM_AIS_EDR_2334.DAT           ",2005-11-07T06:11:55.70 ,"1/0079423910.49490",    0,   87,  274896,"AIS","B1","B1","B1","B1","PISd",0,0,0,0,"B1", 0,15,   0, 0,    0,"AIS","N/A    ","OK ","OK ",    000439.878,    -078.969,    0093.452,    0010.387,    0064.184
"FRM_AIS_EDR_2334.DAT           ",2005-11-07T06:12:03.24 ,"1/0079423918.19553",    0,   88,  274896,"AIS","B1","B1","B1","B1","PISd",0,0,0,0,"B1", 0,15,   0, 0,    0,"AIS","N/A    ","OK ","OK ",    000434.420,    -078.524,    0094.141,    0010.436,    0063.728
"FRM_AIS_EDR_2334.DAT           ",2005-11-07T06:12:10.79 ,"1/0079423925.55153",    0,   89,  274896,"AIS","B1","B1","B1","B1","PISd",0,0,0,0,"B1", 0,15,   0, 0,    0,"AIS","N/A    ","OK ","OK ",    000429.046,    -078.077,    0094.778,    0010.480,    0063.270
"FRM_AIS_EDR_2334.DAT           ",2005-11-07T06:12:18.33 ,"1/0079423933.25216",    0,   90,  274896,"AIS","B1","B1","B1","B1","PISd",0,0,0,0,"B1", 0,15,   0, 0,    0,"AIS","N/A    ","OK ","OK ",    000423.756,    -077.627,    0095.370,    0010.522,    0062.811